Regional Weather Roundup
Issued by NWS

Home | Current Version | Previous Version | Text Only | Print | Product List | Glossary Off
Versions: 1 2 3 4 5 6 7 8 9 10 11 12 13 14 15 16 17 18 19 20 21 22 23 24 25 26 27 28 29 30 31 32 33 34 35 36 37 38 39 40 41 42 43 44 45 46 47 48 49 50

000
ASUS43 KOAX 230202
RWRNE

WEATHER ROUNDUP FOR NEBRASKA
NATIONAL WEATHER SERVICE OMAHA NE
800 PM CST MON DEC 22 2014

NOTES: SATELLITE DATA IS BEING USED TO AUGMENT CLOUD COVER ABOVE
       12000 FEET.
       "FAIR" INDICATES FEW OR NO CLOUDS BELOW 12,000 FEET WITH NO
       SIGNIFICANT WEATHER AND/OR OBSTRUCTIONS TO VISIBILITY.

  * THESE STATIONS DO NOT REPORT WEATHER SUCH AS RAIN...SNOW OR FOG.

NEZ001>004-019>022-054>056-230300-
NEBRASKA PANHANDLE

CITY           SKY/WX    TMP DP  RH WIND       PRES   REMARKS
SCOTTSBLUFF    CLEAR     31  23  72 NW22      29.71R WCI  18
ALLIANCE       MOCLDY    34  23  64 NW33G45   29.63R WCI  20
CHADRON        CLOUDY    36  26  67 NW25G37   29.67R WCI  24
SIDNEY         CLEAR     30  22  72 NW20G29   29.69R WCI  17
$$

NEZ057>060-069>072-079>082-230300-
SOUTHWEST NEBRASKA

CITY           SKY/WX    TMP DP  RH WIND       PRES   REMARKS
NORTH PLATTE   MIX PCPN  36  30  79 NW24G36   29.60R WCI  24
IMPERIAL       CLEAR     33  24  69 W17G25    29.63R WCI  22
MCCOOK         CLEAR     37  24  59 W15       29.60R WCI  28
$$

NEZ005>010-023>029-035>040-094-230300-
NORTH CENTRAL NEBRASKA

CITY           SKY/WX    TMP DP  RH WIND       PRES   REMARKS
VALENTINE      CLOUDY    29  25  85 NW22G30   29.57R WCI  15
BROKEN BOW     FLURRIES  35  31  85 NW26G33   29.53S WCI  22
$$

NEZ041-046>049-061>064-073>077-083>087-230300-
SOUTH CENTRAL NEBRASKA

CITY           SKY/WX    TMP DP  RH WIND       PRES   REMARKS
GRAND ISLAND   PTCLDY    34  29  82 W12       29.53R WCI  25
HASTINGS       CLOUDY    38  30  73 NW15      29.53S WCI  29
KEARNEY *      CLOUDY    37  30  75 W16       29.55S WCI  28
$$

NEZ011>018-030>034-042>045-230300-
NORTHEAST NEBRASKA

CITY           SKY/WX    TMP DP  RH WIND       PRES   REMARKS
NORFOLK        CLOUDY    37  34  89 NW14      29.46S WCI  28
COLUMBUS *     CLOUDY    37  32  81 W5        29.49S WCI  34
TEKAMAH        LGT RAIN  40  37  89 NW12      29.45R WCI  33
$$

NEZ050>053-065>068-078-088>093-230300-
SOUTHEAST NEBRASKA

CITY           SKY/WX    TMP DP  RH WIND       PRES   REMARKS
LINCOLN        CLOUDY    40  36  86 NW6       29.50R
OMAHA EPPLEY   LGT RAIN  40  37  89 NW12      29.46S WCI  33
FALLS CITY     CLOUDY    42  42 100 W10       29.47S
$$

NEZ044-045-051>053-067-230300-
OMAHA AREA

CITY           SKY/WX    TMP DP  RH WIND       PRES   REMARKS
OMAHA EPPLEY   LGT RAIN  40  37  89 NW12      29.46S WCI  33
OFFUTT AFB     LGT RAIN  40  38  91 NW16      29.45R WCI  31
$$



USA.gov is the U.S. government's official web portal to all federal, state and local government web resources and services.